Time,TemperatureF,DewpointF,PressureIn,WindDirection,WindDirectionDegrees,WindSpeedMPH,WindSpeedGustMPH,Humidity,HourlyPrecipIn,Conditions,Clouds,dailyrainin,SolarRadiationWatts/m^2,SoftwareType,DateUTC
2013-05-13 00:01:00,70.0,33.0,30.10,South,182,15.0,17.0,25,-99.99,,,-99.99,-0.100000,,2013-05-13 06:01:00,
2013-05-13 00:11:00,69.0,33.0,30.10,South,178,14.0,17.0,26,-99.99,,,-99.99,-0.100000,,2013-05-13 06:11:00,
2013-05-13 00:21:00,69.0,33.0,30.10,South,177,14.0,16.0,26,-99.99,,,-99.99,-0.100000,,2013-05-13 06:21:00,
2013-05-13 00:31:00,69.0,33.0,30.10,South,177,14.0,16.0,26,-99.99,,,-99.99,-0.100000,,2013-05-13 06:31:00,
2013-05-13 00:41:00,68.0,33.0,30.10,South,176,14.0,16.0,26,-99.99,,,-99.99,0.000000,,2013-05-13 06:41:00,
2013-05-13 00:52:00,68.0,33.0,30.10,South,174,13.0,15.0,26,-99.99,,,-99.99,0.100000,,2013-05-13 06:52:00,
2013-05-13 01:01:00,69.0,32.0,30.10,South,169,13.0,16.0,25,-99.99,,,-99.99,-0.100000,,2013-05-13 07:01:00,
2013-05-13 01:11:00,70.0,32.0,30.10,SSE,164,13.0,16.0,24,-99.99,,,-99.99,0.000000,,2013-05-13 07:11:00,
2013-05-13 01:21:00,71.0,32.0,30.10,SSE,166,14.0,17.0,23,-99.99,,,-99.99,-0.100000,,2013-05-13 07:21:00,
2013-05-13 01:31:00,71.0,32.0,30.10,SSE,165,14.0,17.0,23,-99.99,,,-99.99,-0.100000,,2013-05-13 07:31:00,
2013-05-13 01:41:00,71.0,32.0,30.10,SSE,164,13.0,19.0,23,-99.99,,,-99.99,-0.100000,,2013-05-13 07:41:00,
2013-05-13 01:51:00,71.0,32.0,30.10,SSE,164,15.0,18.0,23,-99.99,,,-99.99,-0.100000,,2013-05-13 07:51:00,
2013-05-13 02:01:00,71.0,31.0,30.10,SSE,165,15.0,19.0,23,-99.99,,,-99.99,-0.100000,,2013-05-13 08:01:00,
2013-05-13 02:11:00,71.0,31.0,30.10,SSE,164,15.0,19.0,23,-99.99,,,-99.99,0.000000,,2013-05-13 08:11:00,
2013-05-13 02:21:00,71.0,31.0,30.09,SSE,166,15.0,18.0,23,-99.99,,,-99.99,-0.100000,,2013-05-13 08:21:00,
2013-05-13 02:31:00,71.0,31.0,30.09,SSE,164,16.0,20.0,22,-99.99,,,-99.99,-0.100000,,2013-05-13 08:31:00,
2013-05-13 02:41:00,71.0,31.0,30.09,SSE,166,16.0,21.0,22,-99.99,,,-99.99,-0.100000,,2013-05-13 08:41:00,
2013-05-13 02:51:00,70.0,31.0,30.09,South,182,10.0,15.0,23,-99.99,,,-99.99,0.000000,,2013-05-13 08:51:00,
2013-05-13 03:01:00,65.0,34.0,30.09,WNW,293,5.0,8.0,31,-99.99,,,-99.99,0.000000,,2013-05-13 09:01:00,
2013-05-13 03:11:00,64.0,33.0,30.09,WSW,252,4.0,6.0,31,-99.99,,,-99.99,0.000000,,2013-05-13 09:11:00,
2013-05-13 03:21:00,65.0,32.0,30.09,South,185,5.0,10.0,29,-99.99,,,-99.99,-0.200000,,2013-05-13 09:21:00,
2013-05-13 03:32:00,61.0,37.0,30.09,NE,53,2.0,5.0,41,-99.99,,,-99.99,0.000000,,2013-05-13 09:32:00,
2013-05-13 03:42:00,61.0,36.0,30.09,NNW,347,3.0,5.0,38,-99.99,,,-99.99,0.000000,,2013-05-13 09:42:00,
2013-05-13 03:52:00,64.0,33.0,30.08,South,182,3.0,7.0,32,-99.99,,,-99.99,0.100000,,2013-05-13 09:52:00,
2013-05-13 04:02:00,63.0,35.0,30.08,WSW,245,3.0,6.0,34,-99.99,,,-99.99,-0.100000,,2013-05-13 10:02:00,
2013-05-13 04:12:00,60.0,36.0,30.08,SW,228,3.0,8.0,40,-99.99,,,-99.99,-0.100000,,2013-05-13 10:12:00,
2013-05-13 04:22:00,63.0,34.0,30.08,West,268,3.0,8.0,34,-99.99,,,-99.99,0.000000,,2013-05-13 10:22:00,
2013-05-13 04:32:00,66.0,31.0,30.08,WSW,238,9.0,15.0,27,-99.99,,,-99.99,-0.100000,,2013-05-13 10:32:00,
2013-05-13 04:42:00,69.0,30.0,30.08,South,186,11.0,16.0,23,-99.99,,,-99.99,0.000000,,2013-05-13 10:42:00,
2013-05-13 04:52:00,69.0,30.0,30.08,SSW,211,7.0,9.0,24,-99.99,,,-99.99,-0.100000,,2013-05-13 10:52:00,
2013-05-13 05:02:00,59.0,40.0,30.08,NW,320,6.0,13.0,48,-99.99,,,-99.99,0.000000,,2013-05-13 11:02:00,
2013-05-13 05:12:00,55.0,41.0,30.09,North,6,6.0,8.0,59,-99.99,,,-99.99,0.000000,,2013-05-13 11:12:00,
2013-05-13 05:21:00,54.0,42.0,30.09,North,357,6.0,9.0,62,-99.99,,,-99.99,-0.200000,,2013-05-13 11:21:00,
2013-05-13 05:32:00,54.0,42.0,30.09,North,0,9.0,11.0,61,-99.99,,,-99.99,-0.100000,,2013-05-13 11:32:00,
2013-05-13 05:41:00,54.0,41.0,30.09,NE,43,4.0,9.0,61,-99.99,,,-99.99,-0.200000,,2013-05-13 11:41:00,
2013-05-13 05:51:00,54.0,40.0,30.09,ENE,58,1.0,4.0,58,-99.99,,,-99.99,-0.100000,,2013-05-13 11:51:00,
2013-05-13 06:01:00,52.0,40.0,30.09,NNE,27,2.0,4.0,62,-99.99,,,-99.99,-0.100000,,2013-05-13 12:01:00,
2013-05-13 06:11:00,52.0,40.0,30.09,NNW,329,4.0,6.0,62,-99.99,,,-99.99,0.200000,,2013-05-13 12:11:00,
2013-05-13 06:21:00,52.0,39.0,30.09,NW,310,1.0,2.0,61,-99.99,,,-99.99,0.700000,,2013-05-13 12:21:00,
2013-05-13 06:32:00,49.0,40.0,30.09,WNW,284,1.0,3.0,71,-99.99,,,-99.99,2.100000,,2013-05-13 12:32:00,
2013-05-13 06:41:00,49.0,40.0,30.09,West,272,0.0,2.0,71,-99.99,,,-99.99,5.600000,,2013-05-13 12:41:00,
2013-05-13 06:51:00,48.0,40.0,30.10,WNW,288,2.0,4.0,72,-99.99,,,-99.99,11.300000,,2013-05-13 12:51:00,
2013-05-13 07:01:00,50.0,40.0,30.10,NW,324,1.0,4.0,68,-99.99,,,-99.99,17.600000,,2013-05-13 13:01:00,
2013-05-13 07:11:00,50.0,40.0,30.10,North,6,2.0,4.0,69,-99.99,,,-99.99,45.000000,,2013-05-13 13:11:00,
2013-05-13 07:21:00,51.0,40.0,30.11,NNE,13,1.0,2.0,66,-99.99,,,-99.99,71.000000,,2013-05-13 13:21:00,
2013-05-13 07:31:00,52.0,41.0,30.11,ENE,70,2.0,3.0,64,-99.99,,,-99.99,135.600006,,2013-05-13 13:31:00,
2013-05-13 07:41:00,54.0,40.0,30.11,NE,47,2.0,4.0,59,-99.99,,,-99.99,173.000000,,2013-05-13 13:41:00,
2013-05-13 07:51:00,56.0,40.0,30.11,NW,317,0.0,1.0,54,-99.99,,,-99.99,199.800003,,2013-05-13 13:51:00,
2013-05-13 08:01:00,57.0,41.0,30.11,North,354,-999.0,-999.0,54,-99.99,,,-99.99,230.199997,,2013-05-13 14:01:00,
2013-05-13 08:11:00,59.0,40.0,30.12,WNW,291,0.0,2.0,49,-99.99,,,-99.99,246.100006,,2013-05-13 14:11:00,
2013-05-13 08:21:00,61.0,40.0,30.12,NW,323,1.0,3.0,46,-99.99,,,-99.99,273.100006,,2013-05-13 14:21:00,
2013-05-13 08:31:00,62.0,40.0,30.12,WNW,300,-999.0,-999.0,46,-99.99,,,-99.99,323.899994,,2013-05-13 14:31:00,
2013-05-13 08:41:00,62.0,41.0,30.13,NNW,344,-999.0,-999.0,46,-99.99,,,-99.99,344.899994,,2013-05-13 14:41:00,
2013-05-13 08:51:00,63.0,43.0,30.13,North,4,-999.0,-999.0,47,-99.99,,,-99.99,376.799988,,2013-05-13 14:51:00,
2013-05-13 09:01:00,64.0,45.0,30.13,North,359,1.0,4.0,49,-99.99,,,-99.99,397.700012,,2013-05-13 15:01:00,
2013-05-13 09:11:00,64.0,44.0,30.13,North,9,3.0,4.0,48,-99.99,,,-99.99,399.100006,,2013-05-13 15:11:00,
2013-05-13 09:21:00,66.0,44.0,30.13,North,4,4.0,5.0,44,-99.99,,,-99.99,467.899994,,2013-05-13 15:21:00,
2013-05-13 09:31:00,67.0,43.0,30.13,North,11,4.0,5.0,42,-99.99,,,-99.99,488.500000,,2013-05-13 15:31:00,
2013-05-13 09:42:00,68.0,43.0,30.13,NNE,30,3.0,4.0,40,-99.99,,,-99.99,532.000000,,2013-05-13 15:42:00,
2013-05-13 09:52:00,69.0,43.0,30.13,NE,34,3.0,4.0,39,-99.99,,,-99.99,571.099976,,2013-05-13 15:52:00,
2013-05-13 10:03:00,71.0,44.0,30.13,NNE,14,3.0,5.0,38,-99.99,,,-99.99,598.599976,,2013-05-13 16:03:00,
2013-05-13 10:11:00,74.0,43.0,30.13,WNW,296,3.0,7.0,34,-99.99,,,-99.99,617.000000,,2013-05-13 16:11:00,
2013-05-13 10:21:00,76.0,41.0,30.13,West,267,7.0,9.0,28,-99.99,,,-99.99,634.099976,,2013-05-13 16:21:00,
2013-05-13 10:33:00,77.0,37.0,30.12,WSW,246,9.0,14.0,24,-99.99,,,-99.99,677.299988,,2013-05-13 16:33:00,
2013-05-13 10:42:00,78.0,39.0,30.13,WSW,252,10.0,13.0,25,-99.99,,,-99.99,707.799988,,2013-05-13 16:42:00,
2013-05-13 10:52:00,78.0,39.0,30.12,WSW,255,10.0,14.0,24,-99.99,,,-99.99,721.400024,,2013-05-13 16:52:00,
2013-05-13 11:02:00,78.0,38.0,30.12,WSW,249,10.0,15.0,23,-99.99,,,-99.99,757.200012,,2013-05-13 17:02:00,
2013-05-13 11:11:00,79.0,39.0,30.12,WSW,251,9.0,12.0,24,-99.99,,,-99.99,768.299988,,2013-05-13 17:11:00,
2013-05-13 11:21:00,79.0,37.0,30.12,WSW,244,9.0,14.0,22,-99.99,,,-99.99,795.799988,,2013-05-13 17:21:00,
2013-05-13 11:32:00,79.0,38.0,30.12,WSW,244,8.0,11.0,23,-99.99,,,-99.99,818.000000,,2013-05-13 17:32:00,
2013-05-13 11:41:00,80.0,38.0,30.12,West,259,10.0,13.0,22,-99.99,,,-99.99,840.000000,,2013-05-13 17:41:00,
2013-05-13 11:54:00,80.0,37.0,30.12,West,271,10.0,15.0,21,-99.99,,,-99.99,864.000000,,2013-05-13 17:54:00,
2013-05-13 12:03:00,80.0,39.0,30.12,WSW,258,10.0,14.0,23,-99.99,,,-99.99,874.000000,,2013-05-13 18:03:00,
2013-05-13 12:12:00,80.0,38.0,30.11,West,263,11.0,15.0,22,-99.99,,,-99.99,864.000000,,2013-05-13 18:12:00,
2013-05-13 12:22:00,80.0,39.0,30.11,West,260,11.0,15.0,23,-99.99,,,-99.99,921.000000,,2013-05-13 18:22:00,
2013-05-13 12:32:00,81.0,38.0,30.11,West,261,11.0,16.0,21,-99.99,,,-99.99,927.000000,,2013-05-13 18:32:00,
2013-05-13 12:42:00,81.0,38.0,30.11,West,262,12.0,15.0,21,-99.99,,,-99.99,937.000000,,2013-05-13 18:42:00,
2013-05-13 12:51:00,81.0,38.0,30.10,West,260,12.0,15.0,21,-99.99,,,-99.99,947.000000,,2013-05-13 18:51:00,
2013-05-13 13:01:00,81.0,37.0,30.10,WSW,253,12.0,18.0,20,-99.99,,,-99.99,974.000000,,2013-05-13 19:01:00,
2013-05-13 13:11:00,82.0,39.0,30.09,West,260,11.0,13.0,21,-99.99,,,-99.99,999.000000,,2013-05-13 19:11:00,
2013-05-13 13:21:00,82.0,41.0,30.09,WSW,254,11.0,15.0,23,-99.99,,,-99.99,803.000000,,2013-05-13 19:21:00,
2013-05-13 13:32:00,80.0,38.0,30.09,WSW,242,12.0,15.0,22,-99.99,,,-99.99,346.299988,,2013-05-13 19:32:00,
2013-05-13 13:43:00,80.0,40.0,30.08,WSW,245,9.0,12.0,23,-99.99,,,-99.99,563.099976,,2013-05-13 19:43:00,
2013-05-13 13:52:00,83.0,37.0,30.08,West,268,11.0,14.0,19,-99.99,,,-99.99,1128.000000,,2013-05-13 19:52:00,
2013-05-13 14:01:00,84.0,37.0,30.08,West,260,11.0,15.0,18,-99.99,,,-99.99,1017.000000,,2013-05-13 20:01:00,
2013-05-13 14:11:00,84.0,38.0,30.07,West,264,11.0,15.0,19,-99.99,,,-99.99,732.500000,,2013-05-13 20:11:00,
2013-05-13 14:23:00,83.0,39.0,30.07,WSW,258,12.0,15.0,20,-99.99,,,-99.99,971.000000,,2013-05-13 20:23:00,
2013-05-13 14:33:00,84.0,40.0,30.06,WSW,258,12.0,17.0,20,-99.99,,,-99.99,981.000000,,2013-05-13 20:33:00,
2013-05-13 14:44:00,85.0,37.0,30.06,West,273,13.0,18.0,18,-99.99,,,-99.99,1037.000000,,2013-05-13 20:44:00,
2013-05-13 14:53:00,85.0,38.0,30.05,WSW,257,13.0,19.0,18,-99.99,,,-99.99,1127.000000,,2013-05-13 20:53:00,
2013-05-13 15:02:00,85.0,38.0,30.05,WSW,250,10.0,13.0,18,-99.99,,,-99.99,969.000000,,2013-05-13 21:02:00,
2013-05-13 15:14:00,86.0,38.0,30.05,WSW,252,10.0,14.0,17,-99.99,,,-99.99,1022.000000,,2013-05-13 21:14:00,
2013-05-13 15:22:00,85.0,39.0,30.04,WSW,252,12.0,16.0,19,-99.99,,,-99.99,682.700012,,2013-05-13 21:22:00,
2013-05-13 15:33:00,85.0,37.0,30.04,WSW,250,11.0,14.0,18,-99.99,,,-99.99,516.700012,,2013-05-13 21:33:00,
2013-05-13 15:43:00,83.0,38.0,30.03,SW,232,12.0,17.0,20,-99.99,,,-99.99,406.200012,,2013-05-13 21:43:00,
2013-05-13 15:52:00,85.0,35.0,30.03,WSW,237,11.0,15.0,17,-99.99,,,-99.99,882.000000,,2013-05-13 21:52:00,
2013-05-13 16:02:00,86.0,38.0,30.02,WSW,254,11.0,17.0,18,-99.99,,,-99.99,482.600006,,2013-05-13 22:02:00,
2013-05-13 16:12:00,87.0,37.0,30.01,West,266,14.0,18.0,17,-99.99,,,-99.99,920.000000,,2013-05-13 22:12:00,
2013-05-13 16:22:00,85.0,37.0,30.01,WSW,253,11.0,15.0,17,-99.99,,,-99.99,848.000000,,2013-05-13 22:22:00,
2013-05-13 16:32:00,85.0,38.0,30.00,West,259,15.0,21.0,18,-99.99,,,-99.99,736.400024,,2013-05-13 22:32:00,
2013-05-13 16:42:00,87.0,37.0,30.00,WSW,251,14.0,19.0,17,-99.99,,,-99.99,794.799988,,2013-05-13 22:42:00,
2013-05-13 16:52:00,86.0,38.0,29.99,WSW,257,13.0,17.0,18,-99.99,,,-99.99,758.799988,,2013-05-13 22:52:00,
2013-05-13 17:01:00,86.0,36.0,29.99,West,263,16.0,21.0,17,-99.99,,,-99.99,702.000000,,2013-05-13 23:01:00,
2013-05-13 17:12:00,84.0,37.0,29.98,West,260,15.0,20.0,18,-99.99,,,-99.99,208.100006,,2013-05-13 23:12:00,
2013-05-13 17:23:00,84.0,35.0,29.98,West,266,13.0,16.0,17,-99.99,,,-99.99,233.600006,,2013-05-13 23:23:00,
2013-05-13 17:33:00,86.0,38.0,29.98,WSW,258,13.0,16.0,18,-99.99,,,-99.99,715.200012,,2013-05-13 23:33:00,
2013-05-13 17:42:00,85.0,37.0,29.98,West,264,13.0,18.0,18,-99.99,,,-99.99,588.799988,,2013-05-13 23:42:00,
2013-05-13 17:53:00,85.0,40.0,29.97,West,259,11.0,16.0,20,-99.99,,,-99.99,358.899994,,2013-05-13 23:53:00,
2013-05-13 18:02:00,85.0,40.0,29.97,WSW,256,12.0,17.0,20,-99.99,,,-99.99,592.500000,,2013-05-14 00:02:00,
2013-05-13 18:12:00,86.0,37.0,29.97,West,261,15.0,20.0,17,-99.99,,,-99.99,548.900024,,2013-05-14 00:12:00,
2013-05-13 18:22:00,85.0,38.0,29.96,WSW,252,14.0,18.0,18,-99.99,,,-99.99,464.799988,,2013-05-14 00:22:00,
2013-05-13 18:31:00,84.0,39.0,29.96,West,259,14.0,18.0,20,-99.99,,,-99.99,433.399994,,2013-05-14 00:31:00,
2013-05-13 18:41:00,84.0,38.0,29.96,WSW,253,15.0,20.0,19,-99.99,,,-99.99,393.100006,,2013-05-14 00:41:00,
2013-05-13 18:51:00,83.0,38.0,29.96,West,263,15.0,20.0,19,-99.99,,,-99.99,344.399994,,2013-05-14 00:51:00,
2013-05-13 19:01:00,83.0,39.0,29.95,West,264,14.0,21.0,20,-99.99,,,-99.99,305.500000,,2013-05-14 01:01:00,
2013-05-13 19:11:00,82.0,38.0,29.95,West,263,14.0,18.0,21,-99.99,,,-99.99,272.000000,,2013-05-14 01:11:00,
2013-05-13 19:21:00,81.0,38.0,29.95,West,262,15.0,20.0,21,-99.99,,,-99.99,238.399994,,2013-05-14 01:21:00,
2013-05-13 19:31:00,81.0,38.0,29.95,WSW,254,14.0,20.0,21,-99.99,,,-99.99,208.600006,,2013-05-14 01:31:00,
2013-05-13 19:43:00,81.0,38.0,29.95,WSW,245,13.0,17.0,21,-99.99,,,-99.99,184.899994,,2013-05-14 01:43:00,
2013-05-13 19:52:00,80.0,39.0,29.95,WSW,244,13.0,17.0,23,-99.99,,,-99.99,157.199997,,2013-05-14 01:52:00,
2013-05-13 20:01:00,79.0,40.0,29.94,WSW,240,12.0,14.0,24,-99.99,,,-99.99,128.600006,,2013-05-14 02:01:00,
2013-05-13 20:11:00,78.0,40.0,29.94,WSW,242,12.0,14.0,26,-99.99,,,-99.99,101.800003,,2013-05-14 02:11:00,
2013-05-13 20:21:00,77.0,40.0,29.94,SW,232,10.0,13.0,27,-99.99,,,-99.99,74.000000,,2013-05-14 02:21:00,
2013-05-13 20:31:00,71.0,47.0,29.94,SW,220,9.0,11.0,41,-99.99,,,-99.99,46.299999,,2013-05-14 02:31:00,
2013-05-13 20:42:00,67.0,48.0,29.94,SW,218,9.0,10.0,49,-99.99,,,-99.99,26.299999,,2013-05-14 02:42:00,
2013-05-13 20:51:00,67.0,45.0,29.94,SSW,206,10.0,11.0,46,-99.99,,,-99.99,12.400000,,2013-05-14 02:51:00,
2013-05-13 21:01:00,67.0,44.0,29.94,SSW,206,11.0,12.0,43,-99.99,,,-99.99,3.700000,,2013-05-14 03:01:00,
2013-05-13 21:11:00,65.0,43.0,29.94,SSW,204,12.0,12.0,45,-99.99,,,-99.99,0.700000,,2013-05-14 03:11:00,
2013-05-13 21:21:00,64.0,44.0,29.94,SSW,206,12.0,12.0,48,-99.99,,,-99.99,0.200000,,2013-05-14 03:21:00,
2013-05-13 21:32:00,64.0,42.0,29.95,SSW,201,13.0,14.0,44,-99.99,,,-99.99,-0.100000,,2013-05-14 03:32:00,
2013-05-13 21:42:00,64.0,41.0,29.95,SSW,199,13.0,13.0,42,-99.99,,,-99.99,0.000000,,2013-05-14 03:42:00,
2013-05-13 21:52:00,65.0,40.0,29.95,SSW,197,12.0,13.0,39,-99.99,,,-99.99,-0.100000,,2013-05-14 03:52:00,
2013-05-13 22:02:00,66.0,37.0,29.95,SSW,194,13.0,15.0,34,-99.99,,,-99.99,-0.100000,,2013-05-14 04:02:00,
2013-05-13 22:12:00,68.0,36.0,29.95,South,190,12.0,15.0,30,-99.99,,,-99.99,-0.100000,,2013-05-14 04:12:00,
2013-05-13 22:22:00,68.0,35.0,29.95,South,188,12.0,14.0,30,-99.99,,,-99.99,-0.100000,,2013-05-14 04:22:00,
2013-05-13 22:32:00,69.0,35.0,29.95,South,182,14.0,17.0,28,-99.99,,,-99.99,0.000000,,2013-05-14 04:32:00,
2013-05-13 22:42:00,69.0,34.0,29.95,South,180,15.0,17.0,27,-99.99,,,-99.99,-0.100000,,2013-05-14 04:42:00,
2013-05-13 22:52:00,69.0,34.0,29.95,South,184,14.0,16.0,27,-99.99,,,-99.99,-0.100000,,2013-05-14 04:52:00,
2013-05-13 23:01:00,67.0,35.0,29.95,South,189,13.0,17.0,29,-99.99,,,-99.99,0.000000,,2013-05-14 05:01:00,
2013-05-13 23:11:00,71.0,34.0,29.96,SSW,208,15.0,18.0,26,-99.99,,,-99.99,-0.100000,,2013-05-14 05:11:00,
2013-05-13 23:21:00,68.0,35.0,29.96,SSW,209,13.0,15.0,30,-99.99,,,-99.99,0.000000,,2013-05-14 05:21:00,
2013-05-13 23:32:00,65.0,36.0,29.96,SSW,199,13.0,14.0,34,-99.99,,,-99.99,0.000000,,2013-05-14 05:32:00,
2013-05-13 23:42:00,64.0,36.0,29.96,SSW,197,12.0,15.0,35,-99.99,,,-99.99,-0.100000,,2013-05-14 05:42:00,
2013-05-13 23:52:00,66.0,35.0,29.95,SSW,199,15.0,17.0,31,-99.99,,,-99.99,-0.100000,,2013-05-14 05:52:00,